C/2016 Q2 ( PanSTARRS )

Japanese version
Home page
Updated on June 13, 2020

---------------------------------------------------------------------

* Profile

Discovery Date August 26, 2016
Magnitude 21.6 mag
Discoverer Pan-STARRS 1 telescope (Haleakala)

* Pictures

* Orbital Elements

Epoch 2021 May 26.0 TT = JDT 2459360.5
T 2021 May 11.89205 TT                                  Rudenko
q   7.0818534            (2000.0)            P               Q
z  -0.0000970      Peri.   84.52924     -0.12667243     -0.80693015
 +/-0.0000018      Node   322.29573     -0.66688063     +0.49981705
e   1.0006869      Incl.  109.38820     +0.73431895     +0.31471678
From 143 observations 2016 Aug. 26-2020 Feb. 26, mean residual 0".6.

* Finding Charts

* Magnitudes Graph

        m1 = 9.5 + 5 log d + 5.0 log r

---------------------------------------------------------------------

The orbital elements are published on M.P.E.C. 2020-G65.
The charts are made with StellaNavigator Ver.10 (AstroArts).
The magnitudes graphs are made with Comet for Windows.

---------------------------------------------------------------------

Copyright(C) Seiichi Yoshida (comet@aerith.net). All rights reserved.